www.pogodaiklimat.ru

АРХИВ ПОГОДЫ в Паркерсбурге

Время (UTC), дата Ветер
(напр.,м/с)
 
Видим.   Явления Облачность Т
(С)
Тd
(С)
f
(%)
Тe
(С)
Тes
(С)
Комфортность

P
(гПа)

Po
(гПа)
Тmin
(С)
Tmax
(С)
R
(мм)
SD
(см)
09:53 15.07 СВ  208 м  туман  ?/?  +21.7  +21.1  96  +28  +28  душно  1020.5  989.9         
10:53 15.07   н/о  туман  ?/?  +21.7  +21.7  100  +28  +28  душно  1020.9  990.2  +21.1  +22.8     
11:21 15.07 Ю  2 км  дымка  8/8 30 м  +22.2  +22.2  100  +30  +30  очень
душно 
  990.2         
11:26 15.07 Ю  5 км  дымка  8/8 30 м  +22.2  +21.7  97  +29  +30  очень
душно 
  990.2         
11:35 15.07 Ю  8 км  дымка  5/5 30 м  +22.2  +21.7  97  +29  +30  очень
душно 
  990.2         
11:53 15.07   11 км    2/2 60 м  +22.8  +21.7  94  +31  +33  очень
душно 
1020.9  990.2         
12:53 15.07   16 км    ясно  +26.1  +22.2  79  +34  +42  очень
душно 
1020.7  990.2         
13:53 15.07   16 км    ясно  +27.8  +22.8  74  +37  +51  опасность
солнечного
удара 
1020.5  989.9         
14:53 15.07 СЗ  16 км    10/8 720 м
[средняя] 
+28.3  +22.8  72  +38  +38  очень
душно 
1020.4  989.9         
15:53 15.07   16 км    8/8 900 м
[средняя] 
+30.0  +21.7  61  +38  +43  очень
душно 
1020.2  989.5         
16:53 15.07 З  16 км    5/5 1050 м  +29.4  +21.7  63  +37  +48  очень
душно 
1019.7  989.2  +21.7  +30.6     
17:53 15.07 СЗ  16 км    5/5 1410 м  +31.7  +22.8  59  +41  +49  опасность
перегрева 
1019.2  988.6         
18:35 15.07 нст  16 км  гроза  5/5 1350 м  +31.1  +21.1  55  +39  +48  очень
душно 
  988.2         
18:53 15.07 В  16 км  гроза  5/5 1350 м  +28.9  +22.2  67  +38  +40  очень
душно 
1019.1  988.6         
19:18 15.07 В  16 км    10/10 1380 м  +27.8  +21.1  67  +35  +35  очень
душно 
  988.6         
19:53 15.07 ЮВ  14 км    8/8 1500 м  +28.3  +21.7  67  +36  +39  очень
душно 
1018.8  988.2         
20:45 15.07 СВ  16 км  гроза  5/0 3600 м
[средняя] 
+28.9  +22.2  67  +38  +42  очень
душно 
  988.2         
20:53 15.07 В  16 км  гроза  2/0 3600 м
[средняя] 
+28.9  +21.7  65  +37  +43  очень
душно 
1018.6  988.2         
21:31 15.07 В  16 км    ясно  +29.4  +21.7  63  +37  +43  очень
душно 
  988.2         
21:53 15.07 СВ  16 км    ясно  +28.3  +22.2  70  +37  +41  очень
душно 
1018.9  988.2         
22:53 15.07   16 км    ясно  +27.2  +22.2  74  +35  +38  очень
душно 
1018.9  988.2  +27.2  +32.2     
23:53 15.07 В  14 км    ясно  +26.1  +22.8  82  +35  +35  очень
душно 
1018.7  988.2         
00:10 16.07 ЮВ  14 км  гроза  ясно  +25.6  +22.8  85  +34  +34  очень
душно 
  988.2         
00:36 16.07 СЗ  14 км  гроза  5/5 840 м  +25.6  +22.8  85  +34  +34  очень
душно 
  989.2         
00:53 16.07 СЗ  16 км  гроза  2/2 840 м  +24.4  +20.0  76  +30  +30  очень
душно 
1019.4  988.9         
01:02 16.07   16 км    ясно  +24.4  +20.0  76  +30  +30  очень
душно 
  988.9         
01:53 16.07   16 км    ясно  +23.9  +20.0  79  +29  +29  душно  1019.4  988.9         
02:53 16.07 ЮЗ  16 км    5/5 1440 м  +22.2  +20.6  91  +29  +29  очень
душно 
1019.9  989.2         
03:53 16.07   16 км    ясно  +23.3  +20.6  85  +31  +31  очень
душно 
1019.8  989.2         
04:53 16.07   13 км    ясно  +22.2  +20.6  91  +29  +29  очень
душно 
1019.4  988.9  +21.7  +27.2     
05:53 16.07   10 км  дымка  ясно  +21.7  +20.6  93  +27  +27  душно  1019.2  988.9         
06:53 16.07   11 км    ясно  +21.7  +20.6  93  +27  +27  душно  1019.3  988.9         
07:53 16.07   14 км    ясно  +22.2  +20.6  91  +29  +29  очень
душно 
1019.2  988.6         
08:53 16.07 Ю  13 км    ясно  +21.7  +20.6  93  +27  +27  душно  1019.4  988.9         
09:53 16.07   16 км    ясно  +22.2  +20.0  87  +28  +28  душно  1019.9  989.5         
10:53 16.07 Ю  16 км    ясно  +22.8  +20.0  84  +29  +30  очень
душно 
1020.2  989.5  +21.7  +22.8     
11:53 16.07 Ю  16 км    ясно  +23.9  +20.6  82  +30  +33  очень
душно 
1020.3  989.5         
12:53 16.07 Ю  16 км    ясно  +24.4  +20.0  76  +30  +34  очень
душно 
1020.2  989.5         
13:53 16.07 ЮЗ  16 км    8/0 3600 м
[средняя] 
+25.6  +20.6  74  +32  +35  очень
душно 
1020.1  989.5         
14:53 16.07 ЮЗ  16 км    ясно  +26.1  +20.6  72  +33  +43  очень
душно 
1020.2  989.5         
15:53 16.07 Ю  16 км    ясно  +27.8  +21.1  67  +35  +51  опасность
солнечного
удара 
1019.8  989.2         
16:53 16.07 Ю  16 км    ясно  +28.3  +21.7  67  +36  +52  опасность
солнечного
удара 
1019.3  988.9  +22.8  +28.3     
17:53 16.07 Ю  16 км    ясно  +28.3  +21.7  67  +36  +54  опасность
солнечного
удара 
1018.9  988.2         
18:53 16.07 ЮВ  16 км    ясно  +30.0  +22.2  63  +39  +50  очень
душно 
1017.9  987.6         
19:53 16.07 Ю  16 км    2/2 1650 м  +30.6  +21.7  59  +39  +47  очень
душно 
1017.2  986.6         
20:53 16.07 ЮВ  16 км    ясно  +31.1  +21.7  57  +39  +46  очень
душно 
1016.4  985.9         
21:53 16.07 Ю  16 км    ясно  +30.6  +22.2  61  +40  +44  очень
душно 
1016.0  985.6         
22:53 16.07 ЮВ  16 км    ясно  +28.9  +22.2  67  +38  +40  очень
душно 
1016.0  985.6  +28.3  +31.1     

 

Местоположение метеостанции Mid-Ohio Valley Regional Airport: широта 39.3450 долгота -81.4392 высота над уровнем моря 262 м.

В архиве по умолчанию представлена погода в Паркерсбурге за последние 1-2 суток. Обновление информации о фактической погоде в базе происходит ежечасно! Архивные данные за месяц целиком и за предыдущие месяцы Вы можете получить, выбрав интересующий диапазон дат из раскрывающегося списка и нажав кнопку "Ввод!".

Внимание! Архив погоды МЕТАР в базе сайта в настоящее время начинается c 1 января 2011 г. Нет смысла пытаться выбрать более раннюю дату.

Внимание! Время в таблицах - всемирное. Для получения местного времени необходимо прибавить поправку, которая в Паркерсбурге равна -5 ч.

Ветер - указаны скорость ветра в м/с и направление, откуда дует ветер: С - северный, СВ - северо-восточный, В - восточный, ЮВ - юго-восточный, Ю - южный, ЮЗ - юго-западный, З - западный, СЗ - северо-западный.
Видимость - горизонтальная дальность видимости в метрах или километрах. При видимости от 1 до 10 км при отсутствии осадков обычно наблюдается дымка, при ухудшении видимости до 1 км и менее - туман. В сухую погоду видимость может ухудшаться дымом, пылью или мглою.
Атмосферные явления - указаны явления, наблюдавшиеся в указанный момент времени.
Облачность - указаны через наклонную черту верхняя и нижняя облачность в баллах и высота нижней границы облаков в метрах. Внимание: облачность, как и прочие метеорологические величины в США измеряются автоматическими метеостанциями. Указанные значения в баллах носят условный характер и показывают процент времени, в течение которого, в среднем, лазерный луч высотомера отражался от облаков обратно.
T - Температура воздуха - температура, измеренная на высоте 2 м над землей.
Td - Температура точки росы - температура, при понижении до которой содержащийся в воздухе водяной пар достигнет насыщения.
f - Относительная влажность воздуха - влажноcть воздуха, измеренная на высоте 2 м над землей.
Te - Эффективная температура - температура, которую ощущает одетый по сезону человек в тени. Характеристика душности погоды. При расчете учитывается влияние влажности воздуха и скорости ветра на теплоощущения человека.
Tes - Эффективная температура на солнце - температура, которую ощущает человек, с поправкой на солнечный нагрев. Характеристика знойности погоды. Зависит от высоты солнца над горизонтом, облачности и скорости ветра. Ночью, в пасмурную погоду, а также при ветре 12 м/с и более поправка равна нулю.
P - Атмосферное давление - приведенное к уровню моря атмосферное давление.
Po - Атмосферное давление - измеренное на уровне метеостанции атмосферное давление.
Tmin - Минимальная температура - минимум температуры воздуха на высоте 2 м над землей.
Tmax - Максимальная температура - максимум температуры воздуха на высоте 2 м над землей.
R - Количество осадков - Количество выпавших осадков за 3 или 6 часов, мм.
SD - Снежный покров - Высота снежного покрова, см.